#datetime,building,power
2022-05-04T00:00:00,kcc,9.60
2022-05-04T00:02:00,kcc,9.60
2022-05-04T00:03:00,kcc,4.20
2022-05-04T00:05:00,kcc,9.60
2022-05-04T00:07:00,kcc,7.80
2022-05-04T00:09:00,kcc,12.00
2022-05-04T00:10:00,kcc,5.40
2022-05-04T00:11:00,kcc,6.00
2022-05-04T00:13:00,kcc,15.60
2022-05-04T00:14:00,kcc,6.00
2022-05-04T00:16:00,kcc,11.40
2022-05-04T00:18:00,kcc,10.20
2022-05-04T00:20:00,kcc,7.80
2022-05-04T00:22:00,kcc,7.80
2022-05-04T00:23:00,kcc,5.40
2022-05-04T00:25:00,kcc,10.20
2022-05-04T00:26:00,kcc,3.60
2022-05-04T00:27:00,kcc,4.20
2022-05-04T00:29:00,kcc,9.60
2022-05-04T00:30:00,kcc,6.00
2022-05-04T00:32:00,kcc,9.60
2022-05-04T00:33:00,kcc,3.60
2022-05-04T00:35:00,kcc,10.20
2022-05-04T00:37:00,kcc,7.80
2022-05-04T00:38:00,kcc,3.60
2022-05-04T00:40:00,kcc,12.00
2022-05-04T00:42:00,kcc,9.60
2022-05-04T00:44:00,kcc,7.80
2022-05-04T00:45:00,kcc,3.60
2022-05-04T00:47:00,kcc,12.00
2022-05-04T00:49:00,kcc,17.40
2022-05-04T00:51:00,kcc,19.80
2022-05-04T00:53:00,kcc,15.60
2022-05-04T00:55:00,kcc,19.20
2022-05-04T00:57:00,kcc,9.60
2022-05-04T00:58:00,kcc,6.00
2022-05-04T01:00:00,kcc,7.80
2022-05-04T01:01:00,kcc,6.00
2022-05-04T01:03:00,kcc,11.40
2022-05-04T01:05:00,kcc,12.00
2022-05-04T01:07:00,kcc,11.40
2022-05-04T01:08:00,kcc,6.00
2022-05-04T01:10:00,kcc,7.80
2022-05-04T01:11:00,kcc,6.00
2022-05-04T01:12:00,kcc,3.60
2022-05-04T01:14:00,kcc,10.20
2022-05-04T01:16:00,kcc,7.80
2022-05-04T01:18:00,kcc,9.60
2022-05-04T01:20:00,kcc,7.80
2022-05-04T01:22:00,kcc,7.80
2022-05-04T01:24:00,kcc,9.60
2022-05-04T01:26:00,kcc,12.00
2022-05-04T01:28:00,kcc,11.40
2022-05-04T01:30:00,kcc,12.00
2022-05-04T01:32:00,kcc,9.60
2022-05-04T01:34:00,kcc,7.80
2022-05-04T01:36:00,kcc,15.60
2022-05-04T01:37:00,kcc,6.00
2022-05-04T01:39:00,kcc,7.80
2022-05-04T01:41:00,kcc,7.80
2022-05-04T01:43:00,kcc,9.60
2022-05-04T01:45:00,kcc,9.60
2022-05-04T01:47:00,kcc,9.60
2022-05-04T01:49:00,kcc,12.00
2022-05-04T01:51:00,kcc,7.80
2022-05-04T01:53:00,kcc,9.60
2022-05-04T01:55:00,kcc,9.60
2022-05-04T01:56:00,kcc,4.20
2022-05-04T01:58:00,kcc,9.60
2022-05-04T01:59:00,kcc,4.20
2022-05-04T02:00:00,kcc,3.60
2022-05-04T02:02:00,kcc,7.80
2022-05-04T02:03:00,kcc,6.00
2022-05-04T02:05:00,kcc,9.60
2022-05-04T02:06:00,kcc,6.00
2022-05-04T02:08:00,kcc,9.60
2022-05-04T02:10:00,kcc,9.60
2022-05-04T02:12:00,kcc,10.20
2022-05-04T02:14:00,kcc,9.60
2022-05-04T02:16:00,kcc,17.40
2022-05-04T02:18:00,kcc,9.60
2022-05-04T02:20:00,kcc,12.00
2022-05-04T02:22:00,kcc,7.80
2022-05-04T02:24:00,kcc,9.60
2022-05-04T02:26:00,kcc,9.60
2022-05-04T02:28:00,kcc,10.20
2022-05-04T02:30:00,kcc,7.80
2022-05-04T02:32:00,kcc,9.60
2022-05-04T02:33:00,kcc,3.60
2022-05-04T02:35:00,kcc,10.20
2022-05-04T02:37:00,kcc,7.80
2022-05-04T02:39:00,kcc,7.80
2022-05-04T02:41:00,kcc,9.60
2022-05-04T02:43:00,kcc,11.40
2022-05-04T02:45:00,kcc,12.00
2022-05-04T02:46:00,kcc,3.60
2022-05-04T02:48:00,kcc,10.20
2022-05-04T02:49:00,kcc,3.60
2022-05-04T02:51:00,kcc,7.80
2022-05-04T02:53:00,kcc,9.60
2022-05-04T02:55:00,kcc,15.60
2022-05-04T02:57:00,kcc,12.00
2022-05-04T02:58:00,kcc,6.00
2022-05-04T03:00:00,kcc,9.60
2022-05-04T03:02:00,kcc,7.80
2022-05-04T03:04:00,kcc,7.80
2022-05-04T03:06:00,kcc,9.60
2022-05-04T03:08:00,kcc,12.00
2022-05-04T03:10:00,kcc,11.40
2022-05-04T03:11:00,kcc,4.20
2022-05-04T03:13:00,kcc,9.60
2022-05-04T03:15:00,kcc,9.60
2022-05-04T03:17:00,kcc,9.60
2022-05-04T03:18:00,kcc,4.20
2022-05-04T03:20:00,kcc,9.60
2022-05-04T03:21:00,kcc,4.20
2022-05-04T03:23:00,kcc,11.40
2022-05-04T03:24:00,kcc,4.20
2022-05-04T03:26:00,kcc,7.80
2022-05-04T03:28:00,kcc,9.60
2022-05-04T03:30:00,kcc,11.40
2022-05-04T03:32:00,kcc,10.20
2022-05-04T03:33:00,kcc,5.40
2022-05-04T03:35:00,kcc,18.00
2022-05-04T03:37:00,kcc,13.20
2022-05-04T03:39:00,kcc,12.00
2022-05-04T03:41:00,kcc,11.40
2022-05-04T03:43:00,kcc,10.20
2022-05-04T03:44:00,kcc,3.60
2022-05-04T03:46:00,kcc,9.60
2022-05-04T03:48:00,kcc,10.20
2022-05-04T03:50:00,kcc,9.60
2022-05-04T03:52:00,kcc,9.60
2022-05-04T03:54:00,kcc,9.60
2022-05-04T03:56:00,kcc,10.20
2022-05-04T03:58:00,kcc,9.60
2022-05-04T03:59:00,kcc,3.60
2022-05-04T04:01:00,kcc,10.20
2022-05-04T04:02:00,kcc,3.60
2022-05-04T04:04:00,kcc,9.60
2022-05-04T04:06:00,kcc,10.20
2022-05-04T04:07:00,kcc,5.40
2022-05-04T04:09:00,kcc,7.80
2022-05-04T04:10:00,kcc,6.00
2022-05-04T04:12:00,kcc,13.80
2022-05-04T04:13:00,kcc,7.80
2022-05-04T04:15:00,kcc,15.60
2022-05-04T04:17:00,kcc,17.40
2022-05-04T04:19:00,kcc,13.80
2022-05-04T04:20:00,kcc,6.00
2022-05-04T04:22:00,kcc,11.40
2022-05-04T04:24:00,kcc,12.00
2022-05-04T04:26:00,kcc,11.40
2022-05-04T04:28:00,kcc,9.60
2022-05-04T04:30:00,kcc,10.20
2022-05-04T04:31:00,kcc,5.40
2022-05-04T04:33:00,kcc,12.00
2022-05-04T04:34:00,kcc,6.00
2022-05-04T04:36:00,kcc,9.60
2022-05-04T04:38:00,kcc,7.80
2022-05-04T04:40:00,kcc,9.60
2022-05-04T04:42:00,kcc,7.80
2022-05-04T04:43:00,kcc,4.20
2022-05-04T04:45:00,kcc,9.60
2022-05-04T04:47:00,kcc,9.60
2022-05-04T04:49:00,kcc,7.80
2022-05-04T04:51:00,kcc,9.60
2022-05-04T04:52:00,kcc,4.20
2022-05-04T04:54:00,kcc,9.60
2022-05-04T04:56:00,kcc,9.60
2022-05-04T04:58:00,kcc,18.00
2022-05-04T04:59:00,kcc,3.60
2022-05-04T05:01:00,kcc,12.00
2022-05-04T05:03:00,kcc,27.00
2022-05-04T05:04:00,kcc,13.80
2022-05-04T05:05:00,kcc,11.40
2022-05-04T05:07:00,kcc,21.60
2022-05-04T05:09:00,kcc,9.60
2022-05-04T05:11:00,kcc,7.80
2022-05-04T05:13:00,kcc,10.20
2022-05-04T05:15:00,kcc,7.80
2022-05-04T05:17:00,kcc,9.60
2022-05-04T05:19:00,kcc,11.40
2022-05-04T05:20:00,kcc,4.20
2022-05-04T05:22:00,kcc,9.60
2022-05-04T05:23:00,kcc,4.20
2022-05-04T05:25:00,kcc,9.60
2022-05-04T05:27:00,kcc,7.80
2022-05-04T05:29:00,kcc,7.80
2022-05-04T05:30:00,kcc,6.00
2022-05-04T05:32:00,kcc,7.80
2022-05-04T05:33:00,kcc,1.80
2022-05-04T05:35:00,kcc,7.80
2022-05-04T05:36:00,kcc,6.00
2022-05-04T05:38:00,kcc,13.20
2022-05-04T05:40:00,kcc,13.80
2022-05-04T05:41:00,kcc,6.00
2022-05-04T05:43:00,kcc,9.60
2022-05-04T05:44:00,kcc,6.00
2022-05-04T05:46:00,kcc,17.40
2022-05-04T05:48:00,kcc,19.80
2022-05-04T05:49:00,kcc,9.60
2022-05-04T05:50:00,kcc,6.00
2022-05-04T05:52:00,kcc,7.80
2022-05-04T05:54:00,kcc,9.60
2022-05-04T05:56:00,kcc,9.60
2022-05-04T05:58:00,kcc,7.80
2022-05-04T06:00:00,kcc,7.80
2022-05-04T06:01:00,kcc,4.20
2022-05-04T06:03:00,kcc,7.80
2022-05-04T06:05:00,kcc,7.80
2022-05-04T06:07:00,kcc,9.60
2022-05-04T06:09:00,kcc,11.40
2022-05-04T06:11:00,kcc,10.20
2022-05-04T06:13:00,kcc,7.80
2022-05-04T06:14:00,kcc,3.60
2022-05-04T06:16:00,kcc,7.80
2022-05-04T06:18:00,kcc,13.80
2022-05-04T06:19:00,kcc,9.60
2022-05-04T06:21:00,kcc,12.00
2022-05-04T06:22:00,kcc,3.60
2022-05-04T06:24:00,kcc,9.60
2022-05-04T06:26:00,kcc,12.00
2022-05-04T06:28:00,kcc,9.60
2022-05-04T06:29:00,kcc,6.00
2022-05-04T06:31:00,kcc,11.40
2022-05-04T06:32:00,kcc,4.20
2022-05-04T06:33:00,kcc,3.60
2022-05-04T06:34:00,kcc,4.20
2022-05-04T06:36:00,kcc,9.60
2022-05-04T06:38:00,kcc,7.80
2022-05-04T06:40:00,kcc,7.80
2022-05-04T06:42:00,kcc,12.00
2022-05-04T06:43:00,kcc,3.60
2022-05-04T06:45:00,kcc,9.60
2022-05-04T06:47:00,kcc,7.80
2022-05-04T06:49:00,kcc,12.00
2022-05-04T06:51:00,kcc,7.80
2022-05-04T06:52:00,kcc,3.60
2022-05-04T06:54:00,kcc,7.80
2022-05-04T06:55:00,kcc,4.20
2022-05-04T06:56:00,kcc,6.00
2022-05-04T06:58:00,kcc,11.40
2022-05-04T07:00:00,kcc,15.60
2022-05-04T07:01:00,kcc,7.80
2022-05-04T07:03:00,kcc,9.60
2022-05-04T07:05:00,kcc,7.80
2022-05-04T07:07:00,kcc,7.80
2022-05-04T07:09:00,kcc,10.20
2022-05-04T07:10:00,kcc,5.40
2022-05-04T07:12:00,kcc,7.80
2022-05-04T07:13:00,kcc,4.20
2022-05-04T07:15:00,kcc,7.80
2022-05-04T07:16:00,kcc,1.80
2022-05-04T07:18:00,kcc,9.60
2022-05-04T07:19:00,kcc,4.20
2022-05-04T07:20:00,kcc,3.60
2022-05-04T07:22:00,kcc,10.20
2022-05-04T07:24:00,kcc,13.20
2022-05-04T07:26:00,kcc,27.60
2022-05-04T07:28:00,kcc,25.20
2022-05-04T07:30:00,kcc,23.40
2022-05-04T07:32:00,kcc,12.00
2022-05-04T07:34:00,kcc,13.20
2022-05-04T07:35:00,kcc,7.80
2022-05-04T07:37:00,kcc,10.20
2022-05-04T07:38:00,kcc,5.40
2022-05-04T07:40:00,kcc,12.00
2022-05-04T07:41:00,kcc,9.60
2022-05-04T07:43:00,kcc,13.80
2022-05-04T07:44:00,kcc,6.00
2022-05-04T07:46:00,kcc,9.60
2022-05-04T07:47:00,kcc,3.60
2022-05-04T07:49:00,kcc,10.20
2022-05-04T07:51:00,kcc,9.60
2022-05-04T07:53:00,kcc,7.80
2022-05-04T07:55:00,kcc,9.60
2022-05-04T07:57:00,kcc,9.60
2022-05-04T07:58:00,kcc,6.00
2022-05-04T07:59:00,kcc,4.20
2022-05-04T08:01:00,kcc,9.60
2022-05-04T08:03:00,kcc,9.60
2022-05-04T08:05:00,kcc,9.60
2022-05-04T08:07:00,kcc,12.00
2022-05-04T08:08:00,kcc,6.00
2022-05-04T08:10:00,kcc,9.60
2022-05-04T08:11:00,kcc,6.00
2022-05-04T08:13:00,kcc,9.60
2022-05-04T08:15:00,kcc,9.60
2022-05-04T08:17:00,kcc,9.60
2022-05-04T08:19:00,kcc,7.80
2022-05-04T08:21:00,kcc,13.80
2022-05-04T08:23:00,kcc,13.80
2022-05-04T08:25:00,kcc,9.60
2022-05-04T08:26:00,kcc,6.00
2022-05-04T08:27:00,kcc,3.60
2022-05-04T08:29:00,kcc,10.20
2022-05-04T08:31:00,kcc,9.60
2022-05-04T08:33:00,kcc,9.60
2022-05-04T08:35:00,kcc,12.00
2022-05-04T08:36:00,kcc,3.60
2022-05-04T08:38:00,kcc,9.60
2022-05-04T08:40:00,kcc,7.80
2022-05-04T08:42:00,kcc,12.00
2022-05-04T08:44:00,kcc,9.60
2022-05-04T08:46:00,kcc,9.60
2022-05-04T08:48:00,kcc,10.20
2022-05-04T08:50:00,kcc,9.60
2022-05-04T08:52:00,kcc,9.60
2022-05-04T08:54:00,kcc,12.00
2022-05-04T08:56:00,kcc,9.60
2022-05-04T08:58:00,kcc,9.60
2022-05-04T09:00:00,kcc,9.60
2022-05-04T09:02:00,kcc,18.00
2022-05-04T09:03:00,kcc,9.60
2022-05-04T09:05:00,kcc,27.00
2022-05-04T09:07:00,kcc,35.40
2022-05-04T09:08:00,kcc,17.40
2022-05-04T09:09:00,kcc,15.60
2022-05-04T09:11:00,kcc,17.40
2022-05-04T09:13:00,kcc,21.60
2022-05-04T09:15:00,kcc,13.80
2022-05-04T09:16:00,kcc,6.00
2022-05-04T09:18:00,kcc,13.20
2022-05-04T09:20:00,kcc,10.20
2022-05-04T09:22:00,kcc,9.60
2022-05-04T09:23:00,kcc,6.00
2022-05-04T09:25:00,kcc,9.60
2022-05-04T09:27:00,kcc,9.60
2022-05-04T09:29:00,kcc,9.60
2022-05-04T09:31:00,kcc,10.20
2022-05-04T09:33:00,kcc,11.40
2022-05-04T09:34:00,kcc,6.00
2022-05-04T09:36:00,kcc,11.40
2022-05-04T09:38:00,kcc,12.00
2022-05-04T09:40:00,kcc,9.60
2022-05-04T09:42:00,kcc,9.60
2022-05-04T09:44:00,kcc,19.80
2022-05-04T09:46:00,kcc,11.40
2022-05-04T09:48:00,kcc,13.80
2022-05-04T09:50:00,kcc,12.00
2022-05-04T09:51:00,kcc,5.40
2022-05-04T09:53:00,kcc,12.00
2022-05-04T09:54:00,kcc,6.00
2022-05-04T09:56:00,kcc,9.60
2022-05-04T09:57:00,kcc,6.00
2022-05-04T09:59:00,kcc,9.60
2022-05-04T10:00:00,kcc,6.00
2022-05-04T10:02:00,kcc,11.40
2022-05-04T10:03:00,kcc,6.00
2022-05-04T10:04:00,kcc,6.00
2022-05-04T10:06:00,kcc,11.40
2022-05-04T10:08:00,kcc,12.00
2022-05-04T10:10:00,kcc,13.20
2022-05-04T10:11:00,kcc,6.00
2022-05-04T10:13:00,kcc,13.80
2022-05-04T10:15:00,kcc,13.80
2022-05-04T10:16:00,kcc,5.40
2022-05-04T10:18:00,kcc,12.00
2022-05-04T10:20:00,kcc,13.80
2022-05-04T10:22:00,kcc,13.20
2022-05-04T10:24:00,kcc,15.60
2022-05-04T10:26:00,kcc,19.80
2022-05-04T10:28:00,kcc,15.60
2022-05-04T10:30:00,kcc,29.40
2022-05-04T10:32:00,kcc,27.00
2022-05-04T10:34:00,kcc,19.80
2022-05-04T10:36:00,kcc,13.20
2022-05-04T10:37:00,kcc,6.00
2022-05-04T10:39:00,kcc,13.80
2022-05-04T10:41:00,kcc,13.80
2022-05-04T10:43:00,kcc,11.40
2022-05-04T10:44:00,kcc,6.00
2022-05-04T10:45:00,kcc,6.00
2022-05-04T10:46:00,kcc,5.40
2022-05-04T10:48:00,kcc,13.80
2022-05-04T10:49:00,kcc,6.00
2022-05-04T10:50:00,kcc,7.80
2022-05-04T10:52:00,kcc,13.80
2022-05-04T10:53:00,kcc,7.80
2022-05-04T10:55:00,kcc,13.20
2022-05-04T10:56:00,kcc,6.00
2022-05-04T10:58:00,kcc,13.80
2022-05-04T11:00:00,kcc,11.40
2022-05-04T11:02:00,kcc,13.80
2022-05-04T11:03:00,kcc,6.00
2022-05-04T11:05:00,kcc,17.40
2022-05-04T11:07:00,kcc,18.00
2022-05-04T11:09:00,kcc,13.20
2022-05-04T11:11:00,kcc,12.00
2022-05-04T11:12:00,kcc,7.80
2022-05-04T11:13:00,kcc,5.40
2022-05-04T11:15:00,kcc,12.00
2022-05-04T11:16:00,kcc,6.00
2022-05-04T11:18:00,kcc,13.20
2022-05-04T11:20:00,kcc,19.80
2022-05-04T11:22:00,kcc,21.60
2022-05-04T11:23:00,kcc,11.40
2022-05-04T11:25:00,kcc,29.40
2022-05-04T11:26:00,kcc,13.80
2022-05-04T11:28:00,kcc,27.00
2022-05-04T11:29:00,kcc,13.80
2022-05-04T11:31:00,kcc,11.40
2022-05-04T11:33:00,kcc,13.80
2022-05-04T11:35:00,kcc,12.00
2022-05-04T11:37:00,kcc,11.40
2022-05-04T11:39:00,kcc,13.80
2022-05-04T11:41:00,kcc,12.00
2022-05-04T11:42:00,kcc,5.40
2022-05-04T11:43:00,kcc,6.00
2022-05-04T11:45:00,kcc,11.40
2022-05-04T11:47:00,kcc,15.60
2022-05-04T11:49:00,kcc,18.00
2022-05-04T11:50:00,kcc,5.40
2022-05-04T11:52:00,kcc,12.00
2022-05-04T11:54:00,kcc,11.40
2022-05-04T11:55:00,kcc,7.80
2022-05-04T11:56:00,kcc,6.00
2022-05-04T11:58:00,kcc,13.80
2022-05-04T12:00:00,kcc,13.80
2022-05-04T12:02:00,kcc,11.40
2022-05-04T12:04:00,kcc,13.80
2022-05-04T12:06:00,kcc,17.40
2022-05-04T12:08:00,kcc,31.20
2022-05-04T12:10:00,kcc,29.40
2022-05-04T12:12:00,kcc,25.20
2022-05-04T12:14:00,kcc,13.80
2022-05-04T12:16:00,kcc,9.60
2022-05-04T12:18:00,kcc,13.80
2022-05-04T12:19:00,kcc,6.00
2022-05-04T12:21:00,kcc,9.60
2022-05-04T12:23:00,kcc,11.40
2022-05-04T12:25:00,kcc,13.80
2022-05-04T12:27:00,kcc,13.80
2022-05-04T12:28:00,kcc,6.00
2022-05-04T12:30:00,kcc,21.00
2022-05-04T12:32:00,kcc,13.80
2022-05-04T12:33:00,kcc,6.00
2022-05-04T12:35:00,kcc,15.60
2022-05-04T12:37:00,kcc,15.60
2022-05-04T12:39:00,kcc,11.40
2022-05-04T12:40:00,kcc,6.00
2022-05-04T12:43:00,kcc,15.60
2022-05-04T12:45:00,kcc,12.00
2022-05-04T12:47:00,kcc,11.40
2022-05-04T12:49:00,kcc,12.00
2022-05-04T12:50:00,kcc,9.60
2022-05-04T12:52:00,kcc,27.00
2022-05-04T12:53:00,kcc,13.80
2022-05-04T12:55:00,kcc,29.40
2022-05-04T12:57:00,kcc,19.80
2022-05-04T12:59:00,kcc,15.00
2022-05-04T13:00:00,kcc,7.80
2022-05-04T13:02:00,kcc,19.80
2022-05-04T13:04:00,kcc,19.20
2022-05-04T13:06:00,kcc,18.00
2022-05-04T13:08:00,kcc,15.60
2022-05-04T13:10:00,kcc,19.20
2022-05-04T13:12:00,kcc,19.80
2022-05-04T13:13:00,kcc,5.40
2022-05-04T13:15:00,kcc,13.80
2022-05-04T13:16:00,kcc,7.80
2022-05-04T13:18:00,kcc,13.80
2022-05-04T13:19:00,kcc,6.00
2022-05-04T13:21:00,kcc,11.40
2022-05-04T13:22:00,kcc,7.80
2022-05-04T13:24:00,kcc,13.80
2022-05-04T13:26:00,kcc,15.60
2022-05-04T13:27:00,kcc,15.60
2022-05-04T13:29:00,kcc,29.40
2022-05-04T13:30:00,kcc,13.80
2022-05-04T13:31:00,kcc,13.20
2022-05-04T13:33:00,kcc,21.60
2022-05-04T13:35:00,kcc,13.80
2022-05-04T13:37:00,kcc,13.20
2022-05-04T13:39:00,kcc,15.60
2022-05-04T13:41:00,kcc,13.80
2022-05-04T13:43:00,kcc,15.60
2022-05-04T13:45:00,kcc,13.80
2022-05-04T13:46:00,kcc,7.80
2022-05-04T13:48:00,kcc,15.60
2022-05-04T13:49:00,kcc,9.60
2022-05-04T13:51:00,kcc,15.60
2022-05-04T13:53:00,kcc,19.80
2022-05-04T13:54:00,kcc,11.40
2022-05-04T13:55:00,kcc,13.80
2022-05-04T13:57:00,kcc,29.40
2022-05-04T13:58:00,kcc,13.20
2022-05-04T14:00:00,kcc,25.80
2022-05-04T14:02:00,kcc,13.80
2022-05-04T14:04:00,kcc,11.40
2022-05-04T14:06:00,kcc,11.40
2022-05-04T14:08:00,kcc,12.00
2022-05-04T14:09:00,kcc,6.00
2022-05-04T14:11:00,kcc,13.20
2022-05-04T14:13:00,kcc,12.00
2022-05-04T14:14:00,kcc,7.80
2022-05-04T14:16:00,kcc,13.80
2022-05-04T14:18:00,kcc,13.80
2022-05-04T14:19:00,kcc,5.40
2022-05-04T14:21:00,kcc,13.80
2022-05-04T14:23:00,kcc,23.40
2022-05-04T14:25:00,kcc,29.40
2022-05-04T14:27:00,kcc,36.60
2022-05-04T14:29:00,kcc,29.40
2022-05-04T14:31:00,kcc,21.60
2022-05-04T14:32:00,kcc,6.00
2022-05-04T14:33:00,kcc,5.40
2022-05-04T14:34:00,kcc,6.00
2022-05-04T14:36:00,kcc,19.80
2022-05-04T14:37:00,kcc,3.60
2022-05-04T14:39:00,kcc,13.80
2022-05-04T14:40:00,kcc,6.00
2022-05-04T14:41:00,kcc,5.40
2022-05-04T14:43:00,kcc,12.00
2022-05-04T14:45:00,kcc,11.40
2022-05-04T14:46:00,kcc,11.40
2022-05-04T14:47:00,kcc,13.80
2022-05-04T14:49:00,kcc,13.80
2022-05-04T14:51:00,kcc,13.80
2022-05-04T14:53:00,kcc,11.40
2022-05-04T14:54:00,kcc,6.00
2022-05-04T14:56:00,kcc,11.40
2022-05-04T14:58:00,kcc,12.00
2022-05-04T15:00:00,kcc,11.40
2022-05-04T15:02:00,kcc,13.80
2022-05-04T15:03:00,kcc,6.00
2022-05-04T15:05:00,kcc,25.20
2022-05-04T15:06:00,kcc,13.80
2022-05-04T15:08:00,kcc,29.40
2022-05-04T15:10:00,kcc,23.40
2022-05-04T15:11:00,kcc,7.80
2022-05-04T15:13:00,kcc,13.80
2022-05-04T15:15:00,kcc,11.40
2022-05-04T15:17:00,kcc,15.60
2022-05-04T15:19:00,kcc,15.60
2022-05-04T15:20:00,kcc,3.60
2022-05-04T15:22:00,kcc,13.80
2022-05-04T15:24:00,kcc,12.00
2022-05-04T15:25:00,kcc,7.80
2022-05-04T15:26:00,kcc,5.40
2022-05-04T15:28:00,kcc,12.00
2022-05-04T15:30:00,kcc,12.00
2022-05-04T15:31:00,kcc,5.40
2022-05-04T15:33:00,kcc,12.00
2022-05-04T15:34:00,kcc,5.40
2022-05-04T15:36:00,kcc,12.00
2022-05-04T15:38:00,kcc,13.80
2022-05-04T15:39:00,kcc,5.40
2022-05-04T15:41:00,kcc,12.00
2022-05-04T15:42:00,kcc,3.60
2022-05-04T15:44:00,kcc,12.00
2022-05-04T15:46:00,kcc,12.00
2022-05-04T15:48:00,kcc,11.40
2022-05-04T15:50:00,kcc,19.20
2022-05-04T15:52:00,kcc,25.80
2022-05-04T15:53:00,kcc,13.20
2022-05-04T15:55:00,kcc,27.60
2022-05-04T15:57:00,kcc,13.80
2022-05-04T15:59:00,kcc,23.40
2022-05-04T16:00:00,kcc,7.80
2022-05-04T16:02:00,kcc,11.40
2022-05-04T16:04:00,kcc,12.00
2022-05-04T16:06:00,kcc,11.40
2022-05-04T16:08:00,kcc,12.00
2022-05-04T16:09:00,kcc,6.00
2022-05-04T16:11:00,kcc,11.40
2022-05-04T16:13:00,kcc,13.80
2022-05-04T16:15:00,kcc,11.40
2022-05-04T16:17:00,kcc,12.00
2022-05-04T16:18:00,kcc,5.40
2022-05-04T16:20:00,kcc,12.00
2022-05-04T16:22:00,kcc,11.40
2022-05-04T16:23:00,kcc,6.00
2022-05-04T16:24:00,kcc,7.80
2022-05-04T16:26:00,kcc,12.00
2022-05-04T16:28:00,kcc,13.20
2022-05-04T16:30:00,kcc,12.00
2022-05-04T16:32:00,kcc,13.80
2022-05-04T16:33:00,kcc,5.40
2022-05-04T16:35:00,kcc,12.00
2022-05-04T16:36:00,kcc,3.60
2022-05-04T16:38:00,kcc,18.00
2022-05-04T16:40:00,kcc,33.00
2022-05-04T16:42:00,kcc,29.40
2022-05-04T16:43:00,kcc,13.20
2022-05-04T16:45:00,kcc,13.80
2022-05-04T16:47:00,kcc,15.60
2022-05-04T16:48:00,kcc,6.00
2022-05-04T16:50:00,kcc,15.60
2022-05-04T16:52:00,kcc,15.60
2022-05-04T16:53:00,kcc,7.80
2022-05-04T16:54:00,kcc,7.80
2022-05-04T16:56:00,kcc,15.60
2022-05-04T16:58:00,kcc,15.60
2022-05-04T16:59:00,kcc,7.80
2022-05-04T17:01:00,kcc,15.60
2022-05-04T17:03:00,kcc,17.40
2022-05-04T17:05:00,kcc,17.40
2022-05-04T17:06:00,kcc,10.20
2022-05-04T17:07:00,kcc,7.80
2022-05-04T17:08:00,kcc,7.80
2022-05-04T17:10:00,kcc,15.60
2022-05-04T17:11:00,kcc,9.60
2022-05-04T17:13:00,kcc,15.60
2022-05-04T17:15:00,kcc,17.40
2022-05-04T17:17:00,kcc,21.60
2022-05-04T17:19:00,kcc,17.40
2022-05-04T17:20:00,kcc,7.80
2022-05-04T17:22:00,kcc,15.60
2022-05-04T17:23:00,kcc,12.00
2022-05-04T17:25:00,kcc,19.20
2022-05-04T17:27:00,kcc,13.80
2022-05-04T17:28:00,kcc,7.80
2022-05-04T17:30:00,kcc,13.80
2022-05-04T17:32:00,kcc,13.20
2022-05-04T17:34:00,kcc,15.60
2022-05-04T17:35:00,kcc,8.40
2022-05-04T17:36:00,kcc,7.80
2022-05-04T17:38:00,kcc,13.20
2022-05-04T17:39:00,kcc,6.00
2022-05-04T17:41:00,kcc,13.80
2022-05-04T17:43:00,kcc,21.00
2022-05-04T17:44:00,kcc,13.80
2022-05-04T17:46:00,kcc,29.40
2022-05-04T17:48:00,kcc,29.40
2022-05-04T17:49:00,kcc,13.20
2022-05-04T17:51:00,kcc,27.60
2022-05-04T17:53:00,kcc,27.60
2022-05-04T17:54:00,kcc,15.00
2022-05-04T17:56:00,kcc,27.60
2022-05-04T17:57:00,kcc,17.40
2022-05-04T17:59:00,kcc,45.00
2022-05-04T18:00:00,kcc,25.20
2022-05-04T18:02:00,kcc,39.00
2022-05-04T18:04:00,kcc,15.60
2022-05-04T18:05:00,kcc,7.80
2022-05-04T18:07:00,kcc,13.80
2022-05-04T18:09:00,kcc,13.80
2022-05-04T18:10:00,kcc,5.40
2022-05-04T18:12:00,kcc,13.80
2022-05-04T18:14:00,kcc,23.40
2022-05-04T18:15:00,kcc,13.80
2022-05-04T18:17:00,kcc,29.40
2022-05-04T18:18:00,kcc,15.60
2022-05-04T18:20:00,kcc,13.20
2022-05-04T18:22:00,kcc,12.00
2022-05-04T18:24:00,kcc,11.40
2022-05-04T18:26:00,kcc,33.60
2022-05-04T18:28:00,kcc,28.80
2022-05-04T18:30:00,kcc,25.80
2022-05-04T18:32:00,kcc,25.20
2022-05-04T18:33:00,kcc,12.00
2022-05-04T18:35:00,kcc,27.00
2022-05-04T18:37:00,kcc,34.80
2022-05-04T18:39:00,kcc,37.20
2022-05-04T18:41:00,kcc,37.20
2022-05-04T18:43:00,kcc,34.80
2022-05-04T18:45:00,kcc,16.20
2022-05-04T18:47:00,kcc,27.00
2022-05-04T18:49:00,kcc,27.00
2022-05-04T18:51:00,kcc,29.40
2022-05-04T18:53:00,kcc,37.20
2022-05-04T18:54:00,kcc,21.60
2022-05-04T18:56:00,kcc,42.60
2022-05-04T18:58:00,kcc,25.20
2022-05-04T19:00:00,kcc,25.80
2022-05-04T19:02:00,kcc,23.40
2022-05-04T19:04:00,kcc,17.40
2022-05-04T19:06:00,kcc,13.80
2022-05-04T19:07:00,kcc,6.00
2022-05-04T19:08:00,kcc,11.40
2022-05-04T19:10:00,kcc,27.00
2022-05-04T19:12:00,kcc,27.60
2022-05-04T19:13:00,kcc,13.80
2022-05-04T19:15:00,kcc,31.20
2022-05-04T19:17:00,kcc,23.40
2022-05-04T19:19:00,kcc,23.40
2022-05-04T19:20:00,kcc,13.20
2022-05-04T19:22:00,kcc,21.60
2022-05-04T19:23:00,kcc,12.00
2022-05-04T19:25:00,kcc,23.40
2022-05-04T19:27:00,kcc,23.40
2022-05-04T19:28:00,kcc,9.60
2022-05-04T19:30:00,kcc,25.20
2022-05-04T19:31:00,kcc,17.40
2022-05-04T19:33:00,kcc,18.00
2022-05-04T19:35:00,kcc,15.60
2022-05-04T19:37:00,kcc,17.40
2022-05-04T19:39:00,kcc,13.80
2022-05-04T19:41:00,kcc,15.60
2022-05-04T19:43:00,kcc,25.20
2022-05-04T19:44:00,kcc,11.40
2022-05-04T19:46:00,kcc,19.80
2022-05-04T19:48:00,kcc,15.60
2022-05-04T19:50:00,kcc,15.60
2022-05-04T19:52:00,kcc,17.40
2022-05-04T19:54:00,kcc,13.80
2022-05-04T19:56:00,kcc,13.80
2022-05-04T19:57:00,kcc,9.60
2022-05-04T19:58:00,kcc,7.80
2022-05-04T20:00:00,kcc,15.60
2022-05-04T20:02:00,kcc,17.40
2022-05-04T20:03:00,kcc,7.80
2022-05-04T20:05:00,kcc,18.00
2022-05-04T20:07:00,kcc,21.00
2022-05-04T20:09:00,kcc,23.40
2022-05-04T20:11:00,kcc,25.20
2022-05-04T20:12:00,kcc,16.20
2022-05-04T20:13:00,kcc,11.40
2022-05-04T20:15:00,kcc,19.20
2022-05-04T20:16:00,kcc,13.80
2022-05-04T20:17:00,kcc,9.60
2022-05-04T20:19:00,kcc,18.00
2022-05-04T20:21:00,kcc,17.40
2022-05-04T20:22:00,kcc,7.80
2022-05-04T20:23:00,kcc,12.00
2022-05-04T20:25:00,kcc,27.00
2022-05-04T20:27:00,kcc,31.20
2022-05-04T20:28:00,kcc,15.60
2022-05-04T20:30:00,kcc,29.40
2022-05-04T20:32:00,kcc,36.60
2022-05-04T20:34:00,kcc,35.40
2022-05-04T20:36:00,kcc,31.20
2022-05-04T20:38:00,kcc,27.00
2022-05-04T20:40:00,kcc,35.40
2022-05-04T20:42:00,kcc,34.80
2022-05-04T20:44:00,kcc,25.80
2022-05-04T20:45:00,kcc,17.40
2022-05-04T20:46:00,kcc,19.20
2022-05-04T20:48:00,kcc,41.40
2022-05-04T20:50:00,kcc,34.80
2022-05-04T20:52:00,kcc,27.60
2022-05-04T20:54:00,kcc,33.00
2022-05-04T20:55:00,kcc,17.40
2022-05-04T20:57:00,kcc,37.20
2022-05-04T20:59:00,kcc,29.40
2022-05-04T21:00:00,kcc,15.60
2022-05-04T21:02:00,kcc,27.00
2022-05-04T21:03:00,kcc,15.60
2022-05-04T21:05:00,kcc,48.60
2022-05-04T21:07:00,kcc,52.80
2022-05-04T21:09:00,kcc,46.80
2022-05-04T21:10:00,kcc,25.20
2022-05-04T21:12:00,kcc,43.20
2022-05-04T21:14:00,kcc,31.20
2022-05-04T21:16:00,kcc,34.80
2022-05-04T21:17:00,kcc,18.00
2022-05-04T21:19:00,kcc,27.00
2022-05-04T21:21:00,kcc,33.00
2022-05-04T21:23:00,kcc,43.20
2022-05-04T21:25:00,kcc,39.00
2022-05-04T21:27:00,kcc,25.20
2022-05-04T21:28:00,kcc,13.80
2022-05-04T21:30:00,kcc,33.00
2022-05-04T21:32:00,kcc,48.60
2022-05-04T21:34:00,kcc,43.20
2022-05-04T21:36:00,kcc,42.60
2022-05-04T21:37:00,kcc,25.80
2022-05-04T21:39:00,kcc,34.80
2022-05-04T21:41:00,kcc,23.40
2022-05-04T21:43:00,kcc,23.40
2022-05-04T21:45:00,kcc,19.80
2022-05-04T21:46:00,kcc,9.60
2022-05-04T21:48:00,kcc,21.60
2022-05-04T21:50:00,kcc,19.20
2022-05-04T21:52:00,kcc,19.80
2022-05-04T21:53:00,kcc,9.60
2022-05-04T21:55:00,kcc,19.20
2022-05-04T21:57:00,kcc,21.60
2022-05-04T21:58:00,kcc,10.20
2022-05-04T22:00:00,kcc,19.20
2022-05-04T22:02:00,kcc,39.00
2022-05-04T22:03:00,kcc,17.40
2022-05-04T22:04:00,kcc,18.00
2022-05-04T22:06:00,kcc,30.60
2022-05-04T22:07:00,kcc,12.00
2022-05-04T22:09:00,kcc,17.40
2022-05-04T22:11:00,kcc,17.40
2022-05-04T22:13:00,kcc,19.80
2022-05-04T22:15:00,kcc,7.80
2022-05-04T22:17:00,kcc,7.80
2022-05-04T22:19:00,kcc,7.80
2022-05-04T22:21:00,kcc,7.80
2022-05-04T22:23:00,kcc,9.60
2022-05-04T22:24:00,kcc,4.20
2022-05-04T22:25:00,kcc,3.60
2022-05-04T22:27:00,kcc,9.60
2022-05-04T22:28:00,kcc,4.20
2022-05-04T22:30:00,kcc,7.80
2022-05-04T22:32:00,kcc,7.80
2022-05-04T22:34:00,kcc,17.40
2022-05-04T22:35:00,kcc,7.80
2022-05-04T22:37:00,kcc,21.60
2022-05-04T22:38:00,kcc,15.60
2022-05-04T22:40:00,kcc,29.40
2022-05-04T22:42:00,kcc,27.00
2022-05-04T22:44:00,kcc,10.20
2022-05-04T22:46:00,kcc,7.20
2022-05-04T22:47:00,kcc,4.20
2022-05-04T22:49:00,kcc,9.60
2022-05-04T22:51:00,kcc,7.80
2022-05-04T22:53:00,kcc,9.60
2022-05-04T22:54:00,kcc,4.20
2022-05-04T22:55:00,kcc,3.60
2022-05-04T22:57:00,kcc,7.80
2022-05-04T22:59:00,kcc,6.00
2022-05-04T23:01:00,kcc,7.80
2022-05-04T23:02:00,kcc,4.20
2022-05-04T23:03:00,kcc,3.60